Regional Weather Roundup
Issued by NWS Grand Forks, ND

Home | Current Version | Previous Version | Graphics & Text | Print | Product List | Glossary On
Versions: 1 2 3 4 5 6 7 8 9 10 11 12 13 14 15 16 17 18 19 20 21 22 23 24 25 26 27 28 29 30 31 32 33 34 35 36 37 38 39 40 41 42 43 44 45 46 47 48 49 50
000
ASUS43 KFGF 220610
RWRFGF
PRAIRIE TO PINES  WEATHER ROUNDUP
NATIONAL WEATHER SERVICE EASTERN NORTH DAKOTA/GRAND FORKS ND
1200 AM CST WED FEB 22 2017

 **SATELLITE DATA USED TO AUGMENT SKY COVER AT AUTOMATED STATIONS**
 *****  WEATHER ACROSS EASTERN NORTH DAKOTA  *****

CITY           SKY/WX    TMP DP  RH WIND       PRES   REMARKS
GRAND FORKS    CLOUDY    33  29  85 N5        29.66F FOG
6HR MIN TEMP:  33; 6HR MAX TEMP:  35; 6HR PCP: TRACE;

GRAND FRKS AFB CLOUDY    32  32 100 CALM      29.66F FOG
DEVILS LAKE    LGT RAIN  34  33  96 W7        29.67
6HR MIN TEMP:  33; 6HR MAX TEMP:  37; 6HR PCP: TRACE;

FARGO          FAIR      35  34  96 E3        29.64F
WAHPETON ARPT    N/A     37  34  87 SE6       29.66F
$$

 ***** WEATHER ACROSS CENTRAL AND WESTERN NORTH DAKOTA  *****

CITY           SKY/WX    TMP DP  RH WIND       PRES   REMARKS
BISMARCK       FAIR      35  33  92 CALM      29.66F
6HR MIN TEMP:  34; 6HR MAX TEMP:  47; 6HR PCP:  0.04;

MINOT          CLOUDY    34  32  92 NW7       29.67S FOG
6HR MIN TEMP:  33; 6HR MAX TEMP:  44;

JAMESTOWN      FAIR      34  33  96 CALM      29.64F
6HR MIN TEMP:  33; 6HR MAX TEMP:  41;

MINOT AFB      LGT RAIN  32  32 100 N9        29.67S FOG     WCI  24
GARRISON         N/A     34  32  92 N8        29.65F
WILLISTON      CLOUDY    34  32  92 N13       29.70R WCI  25
6HR MIN TEMP:  34; 6HR MAX TEMP:  40; 6HR PCP:  0.02;

DICKINSON      FAIR      35  32  88 E7        29.61F
6HR MIN TEMP:  32; 6HR MAX TEMP:  48; 6HR PCP:  0.08;

HETTINGER      FAIR      35  33  92 CALM      29.63F
6HR MIN TEMP:  34; 6HR MAX TEMP:  52; 6HR PCP:  0.06;

$$

 *****  OTHER AIRPORT OBSERVATIONS IN OUR AREA  *****

CITY           SKY/WX    TMP DP  RH WIND       PRES   REMARKS
WALHALLA       NOT AVBL
GRAFTON AIRPOR FOG       30  30 100 NW6       29.70R VSB<1/4 WCI  24
VALLEY CITY AR MOCLDY    34  34 100 CALM      29.67S
CANDO          NOT AVBL
CAVALIER APRT  FOG       32  32 100 N8        29.69R VSB 1/4 WCI  25
GWINNER        FAIR      37  36  93 CALM      29.65F
SHEYENNE NWR     N/A     35  34  96 S7        29.95S
ROLLA          HVY SNOW  32  32 100 N10       29.68R VSB 1/4 WCI  24
 ***** THE ABOVE OBSERVATIONS ARE NON NWS ARE NOT QUALITY
       CONTROLLED AND MAY MIS-REPORT RAIN FOR SNOW...
$$

  *****  WEATHER ACROSS NORTHERN MINNESOTA  *****

CITY           SKY/WX    TMP DP  RH WIND       PRES   REMARKS
FLAG ISLAND    CLOUDY    34  30  86 NE3       29.66F
WARROAD        MOCLDY    32  28  86 CALM      29.67S
ROSEAU         MOCLDY    30  27  86 CALM      29.67R FOG
HALLOCK        FAIR      30  28  93 CALM      29.68R FOG
THF RVR FALLS  MOCLDY    33  32  96 N3        29.66S FOG
6HR MIN TEMP:  32; 6HR MAX TEMP:  38; 6HR PCP: TRACE;

BAUDETTE       FAIR      30  28  92 CALM      29.64F
6HR MIN TEMP:  30; 6HR MAX TEMP:  38;

WASKISH        MOCLDY    34  32  93 CALM      29.64F
CROOKSTON      CLOUDY    32  32 100 W5        29.68R FOG
GREENBUSH NDAW   N/A     28  28 100 CALM        N/A
$$
  *****  WEATHER ACROSS CENTRAL AND WEST MINNESOTA  *****

CITY           SKY/WX    TMP DP  RH WIND       PRES   REMARKS
FOSSTON        FOG       34  32  93 SW5       29.67S VSB 1/2
BEMIDJI        CLOUDY    37  36  99 S3        29.64F
PARK RAPIDS    FAIR      34  31  88 CALM      29.66S
6HR MIN TEMP:  33; 6HR MAX TEMP:  43; 6HR PCP: TRACE;

ELBOW LAKE     MOCLDY    37  37  99 CALM      29.69S
WADENA         FAIR      36  36 100 CALM      29.67F
DETROIT LAKES  FAIR      34  32  93 CALM      29.67F
MOORHEAD       FAIR      36  36 100 E3        29.66F
FERGUS FALLS   CLOUDY    39  37  93 E6        29.70F
MORRIS MN      FAIR      37  37 100 NE5       29.66S FOG
STAPLES        FAIR      34  34 100 CALM      29.68F
$$
  *****  WEATHER ELSEWHERE ACROSS MINNESOTA  *****

CITY           SKY/WX    TMP DP  RH WIND       PRES   REMARKS
DULUTH         MOCLDY    41  37  86 NW5       29.64F
6HR MIN TEMP:  36; 6HR MAX TEMP:  46;

INTRNTL FALLS  FAIR      33  30  88 N7        29.64F
6HR MIN TEMP:  31; 6HR MAX TEMP:  38;

ELY            FAIR      36  34  93 SW3       29.65F
CLOQUET        MOCLDY    39  36  87 CALM      29.65F
WHEATON        FAIR      37  37 100 NE5       29.68F
BRAINERD       FAIR      32  31  96 CALM      29.67S FOG
6HR MIN TEMP:  31; 6HR MAX TEMP:  46;

HIBBING        CLOUDY    36  36 100 SE3       29.62F
6HR MIN TEMP:  33; 6HR MAX TEMP:  42; 6HR PCP: TRACE;

ALEXANDRIA     MOCLDY    38  38 100 N7        29.68R
6HR MIN TEMP:  35; 6HR MAX TEMP:  47;

SAINT CLOUD    FOG       34  34 100 CALM      29.68S VSB 1/2
6HR MIN TEMP:  33; 6HR MAX TEMP:  50;

MINNEAPOLIS    MOCLDY    44  40  85 CALM      29.67F
6HR MIN TEMP:  44; 6HR MAX TEMP:  60;

$$

  *****  WEATHER ACROSS SOUTH DAKOTA  *****

CITY           SKY/WX    TMP DP  RH WIND       PRES   REMARKS
SIOUX FALLS    FAIR      44  38  79 N18       29.66R
6HR MIN TEMP:  40; 6HR MAX TEMP:  57;

BROOKINGS      FAIR      45  39  79 SE9       29.61F
WATERTOWN      LGT RAIN  47  38  71 W9        29.64R
6HR MIN TEMP:  40; 6HR MAX TEMP:  53; 6HR PCP: TRACE;

HURON          FAIR      49  42  77 NW8       29.66R
6HR MIN TEMP:  47; 6HR MAX TEMP:  63;

SISSETON         N/A     38  37  97 W6        29.66F
ABERDEEN       FAIR      41  35  79 NE9       29.64F
6HR MIN TEMP:  40; 6HR MAX TEMP:  54;

MITCHELL       FAIR      48  37  65 S5        29.64R
PIERRE         FAIR      47  38  71 W7        29.65R
6HR MIN TEMP:  45; 6HR MAX TEMP:  61; 6HR PCP: TRACE;

MOBRIDGE       FAIR      41  34  76 VRB5      29.61F
RAPID CITY     LGT RAIN  50  36  58 W20G25    29.73R
6HR MIN TEMP:  45; 6HR MAX TEMP:  66; 6HR PCP: TRACE;

$$

  *****  SOME WEATHER IN NEARBY STATES *****

CITY           SKY/WX    TMP DP  RH WIND       PRES   REMARKS
GLASGOW MT     LGT SNOW  33  32  96 W9        29.72R FOG
6HR MIN TEMP:  32; 6HR MAX TEMP:  40; 6HR PCP:  0.02;

GREAT FALLS MT LGT SNOW  32  31  96 N12       29.74R VSB 1   WCI  23
6HR MIN TEMP:  34; 6HR MAX TEMP:  40; 6HR PCP:  0.01;

CHEYENNE WY    FAIR      43  18  36 SW10      29.86F
6HR MIN TEMP:  38; 6HR MAX TEMP:  56;

SCOTTSBLUFF NE FAIR      51  21  30 NW10      29.76F
6HR MIN TEMP:  46; 6HR MAX TEMP:  68;

OMAHA NE       FAIR      47  36  65 SE14      29.76F
6HR MIN TEMP:  46; 6HR MAX TEMP:  67;

DES MOINES IA  FAIR      50  33  52 S12       29.78F
6HR MIN TEMP:  50; 6HR MAX TEMP:  60;

DAVENPORT IA   FAIR      45  43  93 S6        29.84F
6HR MIN TEMP:  45; 6HR MAX TEMP:  59;

CHICAGO IL     MOCLDY    52  50  93 S6        29.84F FOG
6HR MIN TEMP:  49; 6HR MAX TEMP:  62;

EAU CLAIRE WI  FAIR      44  38  79 S7        29.69F
6HR MIN TEMP:  44; 6HR MAX TEMP:  54;

LA CROSSE WI   FAIR      50  40  68 S14       29.74F
6HR MIN TEMP:  49; 6HR MAX TEMP:  57;

$$

  *****  SOME NATIONAL WEATHER *****

CITY           SKY/WX    TMP DP  RH WIND       PRES   REMARKS
LA GUARDIA NY  CLOUDY    45  33  63 SW12G18   30.09
6HR MIN TEMP:  44; 6HR MAX TEMP:  45;

RALEIGH NC     MOCLDY    54  46  74 E6        30.08F
6HR MIN TEMP:  49; 6HR MAX TEMP:  57;

ATLANTA GA     CLOUDY    61  59  93 E10       29.91F
6HR MIN TEMP:  60; 6HR MAX TEMP:  62; 6HR PCP:  0.15;

NEW ORLEANS LA FAIR      57  55  93 W3        29.85F
6HR MIN TEMP:  56; 6HR MAX TEMP:  63;

OKLAHOMA CITY  FAIR      47  37  68 SW3       29.94F
6HR MIN TEMP:  44; 6HR MAX TEMP:  66;

ALBUQUERQUE NM MOCLDY    52  30  43 E5        30.21F
6HR MIN TEMP:  49; 6HR MAX TEMP:  68;

SALT LAKE CITY LGT RAIN  35  34  96 SE12      30.09F
6HR MIN TEMP:  33; 6HR MAX TEMP:  61; 6HR PCP:  0.36;

LOS ANGELES CA CLOUDY    58  57  97 W9        30.23S
6HR MIN TEMP:  58; 6HR MAX TEMP:  62;

BOISE ID       MOCLDY    40  28  62 CALM      30.04R
6HR MIN TEMP:  39; 6HR


USA.gov is the U.S. government's official web portal to all federal, state and local government web resources and services.